Time,TemperatureF,DewpointF,PressureIn,WindDirection,WindDirectionDegrees,WindSpeedMPH,WindSpeedGustMPH,Humidity,HourlyPrecipIn,Conditions,Clouds,dailyrainin,SoftwareType,DateUTC
2013-10-19 00:00:00,50.3,36.1,29.96,West,273,4.0,4.0,58,0.00,,,0.00,Wunderground v.1.15,2013-10-19 04:00:00,
2013-10-19 00:05:00,50.2,36.0,29.96,SW,232,3.0,4.0,58,0.00,,,0.00,Wunderground v.1.15,2013-10-19 04:05:00,
2013-10-19 00:10:00,50.1,36.3,29.97,West,278,1.0,2.0,59,0.00,,,0.00,Wunderground v.1.15,2013-10-19 04:10:00,
2013-10-19 00:15:00,50.1,35.9,29.97,SW,217,3.0,3.0,58,0.00,,,0.00,Wunderground v.1.15,2013-10-19 04:15:00,
2013-10-19 00:25:00,50.0,35.8,29.98,WSW,246,3.0,5.0,58,0.00,,,0.00,Wunderground v.1.15,2013-10-19 04:25:00,
2013-10-19 00:30:00,49.9,35.7,29.98,SW,229,3.0,5.0,58,0.00,,,0.00,Wunderground v.1.15,2013-10-19 04:30:00,
2013-10-19 00:35:00,50.0,35.8,29.98,West,273,4.0,5.0,58,0.00,,,0.00,Wunderground v.1.15,2013-10-19 04:35:00,
2013-10-19 00:40:00,50.0,35.4,29.98,WNW,296,3.0,6.0,57,0.00,,,0.00,Wunderground v.1.15,2013-10-19 04:40:00,
2013-10-19 00:45:00,49.9,35.7,29.98,SSW,195,2.0,6.0,58,0.00,,,0.00,Wunderground v.1.15,2013-10-19 04:45:00,
2013-10-19 00:55:00,49.8,35.6,29.98,SSW,211,3.0,4.0,58,0.00,,,0.00,Wunderground v.1.15,2013-10-19 04:55:00,
2013-10-19 01:00:00,49.7,35.5,29.98,SSW,199,2.0,2.0,58,0.00,,,0.00,Wunderground v.1.15,2013-10-19 05:00:00,
2013-10-19 01:05:00,49.5,35.3,29.98,SW,228,1.0,2.0,58,0.00,,,0.00,Wunderground v.1.15,2013-10-19 05:05:00,
2013-10-19 01:10:00,49.3,35.6,29.98,SSW,199,1.0,3.0,59,0.00,,,0.00,Wunderground v.1.15,2013-10-19 05:10:00,
2013-10-19 01:15:00,49.1,35.8,29.98,SSW,210,1.0,3.0,60,0.00,,,0.00,Wunderground v.1.15,2013-10-19 05:15:00,
2013-10-19 01:20:00,48.8,35.9,29.98,South,189,1.0,3.0,61,0.00,,,0.00,Wunderground v.1.15,2013-10-19 05:20:00,
2013-10-19 01:25:00,48.7,35.8,29.99,SSW,192,2.0,3.0,61,0.00,,,0.00,Wunderground v.1.15,2013-10-19 05:25:00,
2013-10-19 01:30:00,48.6,35.7,29.99,WSW,240,2.0,2.0,61,0.00,,,0.00,Wunderground v.1.15,2013-10-19 05:30:00,
2013-10-19 01:35:00,48.7,35.4,29.98,WSW,252,2.0,3.0,60,0.00,,,0.00,Wunderground v.1.15,2013-10-19 05:35:00,
2013-10-19 01:40:00,49.0,35.7,29.98,SW,225,3.0,3.0,60,0.00,,,0.00,Wunderground v.1.15,2013-10-19 05:40:00,
2013-10-19 01:45:00,49.1,35.8,29.98,SW,216,2.0,3.0,60,0.00,,,0.00,Wunderground v.1.15,2013-10-19 05:45:00,
2013-10-19 01:50:00,49.0,35.7,29.98,SE,146,1.0,1.0,60,0.00,,,0.00,Wunderground v.1.15,2013-10-19 05:50:00,
2013-10-19 01:55:00,48.8,35.9,29.98,SW,223,1.0,1.0,61,0.00,,,0.00,Wunderground v.1.15,2013-10-19 05:55:00,
2013-10-19 02:00:00,48.7,35.8,29.98,WSW,258,1.0,1.0,61,0.00,,,0.00,Wunderground v.1.15,2013-10-19 06:00:00,
2013-10-19 02:05:00,48.7,35.8,29.99,WSW,237,1.0,1.0,61,0.00,,,0.00,Wunderground v.1.15,2013-10-19 06:05:00,
2013-10-19 02:10:00,48.7,35.8,29.98,SSW,201,1.0,1.0,61,0.00,,,0.00,Wunderground v.1.15,2013-10-19 06:10:00,
2013-10-19 02:15:00,48.5,36.1,29.98,SSW,198,1.0,1.0,62,0.00,,,0.00,Wunderground v.1.15,2013-10-19 06:15:00,
2013-10-19 02:20:00,48.3,35.9,29.98,South,186,1.0,1.0,62,0.00,,,0.00,Wunderground v.1.15,2013-10-19 06:20:00,
2013-10-19 02:25:00,48.2,35.8,29.98,SW,232,1.0,1.0,62,0.00,,,0.00,Wunderground v.1.15,2013-10-19 06:25:00,
2013-10-19 02:30:00,48.1,36.1,29.98,SW,227,2.0,4.0,63,0.00,,,0.00,Wunderground v.1.15,2013-10-19 06:30:00,
2013-10-19 02:35:00,47.9,36.3,29.98,SW,228,2.0,4.0,64,0.00,,,0.00,Wunderground v.1.15,2013-10-19 06:35:00,
2013-10-19 02:40:00,47.9,36.3,29.98,WSW,238,2.0,2.0,64,0.00,,,0.00,Wunderground v.1.15,2013-10-19 06:40:00,
2013-10-19 02:45:00,48.0,36.4,29.98,North,351,2.0,2.0,64,0.00,,,0.00,Wunderground v.1.15,2013-10-19 06:45:00,
2013-10-19 02:50:00,48.0,36.0,29.98,WSW,238,2.0,2.0,63,0.00,,,0.00,Wunderground v.1.15,2013-10-19 06:50:00,
2013-10-19 02:55:00,48.1,36.1,29.98,SW,217,3.0,4.0,63,0.00,,,0.00,Wunderground v.1.15,2013-10-19 06:55:00,
2013-10-19 03:00:00,48.2,36.2,29.98,SW,222,4.0,6.0,63,0.00,,,0.00,Wunderground v.1.15,2013-10-19 07:00:00,
2013-10-19 03:05:00,48.1,36.1,29.98,SW,234,3.0,6.0,63,0.00,,,0.00,Wunderground v.1.15,2013-10-19 07:05:00,
2013-10-19 03:10:00,48.0,36.4,29.98,SW,221,3.0,3.0,64,0.00,,,0.00,Wunderground v.1.15,2013-10-19 07:10:00,
2013-10-19 03:15:00,47.9,36.3,29.98,SSW,211,3.0,3.0,64,0.00,,,0.00,Wunderground v.1.15,2013-10-19 07:15:00,
2013-10-19 03:20:00,47.9,36.7,29.98,SSW,208,3.0,3.0,65,0.00,,,0.00,Wunderground v.1.15,2013-10-19 07:20:00,
2013-10-19 03:25:00,47.9,36.3,29.99,SSW,211,3.0,3.0,64,0.00,,,0.00,Wunderground v.1.15,2013-10-19 07:25:00,
2013-10-19 03:30:00,47.8,37.0,29.99,SW,232,3.0,3.0,66,0.00,,,0.00,Wunderground v.1.15,2013-10-19 07:30:00,
2013-10-19 03:35:00,47.7,36.5,29.99,West,275,3.0,3.0,65,0.00,,,0.00,Wunderground v.1.15,2013-10-19 07:35:00,
2013-10-19 03:40:00,47.7,36.9,29.99,SSW,199,3.0,7.0,66,0.00,,,0.00,Wunderground v.1.15,2013-10-19 07:40:00,
2013-10-19 03:45:00,47.8,37.0,29.99,SW,236,4.0,7.0,66,0.00,,,0.00,Wunderground v.1.15,2013-10-19 07:45:00,
2013-10-19 03:50:00,47.9,36.7,29.99,WSW,254,5.0,5.0,65,0.00,,,0.00,Wunderground v.1.15,2013-10-19 07:50:00,
2013-10-19 04:00:00,47.8,37.0,29.99,SSW,194,3.0,3.0,66,0.00,,,0.00,Wunderground v.1.15,2013-10-19 08:00:00,
2013-10-19 04:05:00,47.9,36.7,29.99,South,191,4.0,15.0,65,0.00,,,0.00,Wunderground v.1.15,2013-10-19 08:05:00,
2013-10-19 04:15:00,48.5,37.3,29.99,SSW,213,4.0,5.0,65,0.00,,,0.00,Wunderground v.1.15,2013-10-19 08:15:00,
2013-10-19 04:20:00,48.7,37.1,30.00,West,259,5.0,5.0,64,0.00,,,0.00,Wunderground v.1.15,2013-10-19 08:20:00,
2013-10-19 04:25:00,48.8,37.2,30.00,SE,126,5.0,5.0,64,0.00,,,0.00,Wunderground v.1.15,2013-10-19 08:25:00,
2013-10-19 04:30:00,48.7,37.5,30.00,SW,219,4.0,8.0,65,0.00,,,0.00,Wunderground v.1.15,2013-10-19 08:30:00,
2013-10-19 04:35:00,48.8,37.6,30.00,WSW,244,4.0,8.0,65,0.00,,,0.00,Wunderground v.1.15,2013-10-19 08:35:00,
2013-10-19 04:40:00,48.8,37.6,30.00,SSW,198,4.0,9.0,65,0.00,,,0.00,Wunderground v.1.15,2013-10-19 08:40:00,
2013-10-19 04:50:00,48.8,37.6,30.00,SW,221,4.0,5.0,65,0.00,,,0.00,Wunderground v.1.15,2013-10-19 08:50:00,
2013-10-19 04:55:00,48.8,37.6,30.00,SW,219,4.0,5.0,65,0.00,,,0.00,Wunderground v.1.15,2013-10-19 08:55:00,
2013-10-19 05:00:00,48.7,37.8,30.00,WSW,237,3.0,4.0,66,0.00,,,0.00,Wunderground v.1.15,2013-10-19 09:00:00,
2013-10-19 05:05:00,48.5,37.7,30.00,SW,228,3.0,4.0,66,0.00,,,0.00,Wunderground v.1.15,2013-10-19 09:05:00,
2013-10-19 05:10:00,48.3,37.8,30.00,WSW,240,3.0,4.0,67,0.00,,,0.00,Wunderground v.1.15,2013-10-19 09:10:00,
2013-10-19 05:20:00,48.0,37.6,30.00,SW,217,3.0,3.0,67,0.00,,,0.00,Wunderground v.1.15,2013-10-19 09:20:00,
2013-10-19 05:30:00,47.7,37.7,30.01,SW,229,3.0,3.0,68,0.00,,,0.00,Wunderground v.1.15,2013-10-19 09:30:00,
2013-10-19 05:35:00,47.6,37.6,30.01,SSW,194,2.0,3.0,68,0.00,,,0.00,Wunderground v.1.15,2013-10-19 09:35:00,
2013-10-19 05:40:00,47.5,37.8,30.01,SW,232,2.0,2.0,69,0.00,,,0.00,Wunderground v.1.15,2013-10-19 09:40:00,
2013-10-19 05:45:00,47.5,37.8,30.01,SW,215,3.0,4.0,69,0.00,,,0.00,Wunderground v.1.15,2013-10-19 09:45:00,
2013-10-19 05:50:00,47.5,37.8,30.01,SW,228,3.0,5.0,69,0.00,,,0.00,Wunderground v.1.15,2013-10-19 09:50:00,
2013-10-19 06:00:00,47.8,38.1,30.02,SW,230,3.0,4.0,69,0.00,,,0.00,Wunderground v.1.15,2013-10-19 10:00:00,
2013-10-19 06:05:00,47.9,37.8,30.02,West,259,3.0,4.0,68,0.00,,,0.00,Wunderground v.1.15,2013-10-19 10:05:00,
2013-10-19 06:10:00,48.1,38.0,30.02,SW,229,4.0,4.0,68,0.00,,,0.00,Wunderground v.1.15,2013-10-19 10:10:00,
2013-10-19 06:15:00,48.0,38.3,30.02,SW,223,3.0,4.0,69,0.00,,,0.00,Wunderground v.1.15,2013-10-19 10:15:00,
2013-10-19 06:20:00,47.8,38.1,30.02,WSW,246,3.0,10.0,69,0.00,,,0.00,Wunderground v.1.15,2013-10-19 10:20:00,
2013-10-19 06:30:00,47.8,38.1,30.02,SW,235,3.0,3.0,69,0.00,,,0.00,Wunderground v.1.15,2013-10-19 10:30:00,
2013-10-19 06:35:00,47.7,38.0,30.02,SW,226,3.0,6.0,69,0.00,,,0.00,Wunderground v.1.15,2013-10-19 10:35:00,
2013-10-19 06:45:00,47.6,38.3,30.02,WSW,244,4.0,5.0,70,0.00,,,0.00,Wunderground v.1.15,2013-10-19 10:45:00,
2013-10-19 06:50:00,47.5,38.2,30.02,SSW,207,4.0,4.0,70,0.00,,,0.00,Wunderground v.1.15,2013-10-19 10:50:00,
2013-10-19 06:55:00,47.4,38.5,30.02,SSW,212,4.0,4.0,71,0.00,,,0.00,Wunderground v.1.15,2013-10-19 10:55:00,
2013-10-19 07:00:00,47.4,38.5,30.02,SW,230,3.0,4.0,71,0.00,,,0.00,Wunderground v.1.15,2013-10-19 11:00:00,
2013-10-19 07:05:00,47.4,38.5,30.03,WSW,237,4.0,4.0,71,0.00,,,0.00,Wunderground v.1.15,2013-10-19 11:05:00,
2013-10-19 07:10:00,47.4,38.5,30.03,WSW,245,4.0,4.0,71,0.00,,,0.00,Wunderground v.1.15,2013-10-19 11:10:00,
2013-10-19 07:15:00,47.4,38.5,30.03,WSW,249,3.0,5.0,71,0.00,,,0.00,Wunderground v.1.15,2013-10-19 11:15:00,
2013-10-19 07:20:00,47.6,38.7,30.03,SW,236,3.0,3.0,71,0.00,,,0.00,Wunderground v.1.15,2013-10-19 11:20:00,
2013-10-19 07:25:00,47.6,38.7,30.03,SW,236,4.0,4.0,71,0.00,,,0.00,Wunderground v.1.15,2013-10-19 11:25:00,
2013-10-19 07:30:00,47.7,38.8,30.03,SW,227,4.0,4.0,71,0.00,,,0.00,Wunderground v.1.15,2013-10-19 11:30:00,
2013-10-19 07:35:00,47.7,38.8,30.03,WSW,242,3.0,4.0,71,0.00,,,0.00,Wunderground v.1.15,2013-10-19 11:35:00,
2013-10-19 07:40:00,47.9,38.9,30.03,SW,228,4.0,4.0,71,0.00,,,0.00,Wunderground v.1.15,2013-10-19 11:40:00,
2013-10-19 07:45:00,47.9,38.9,30.03,WSW,250,4.0,4.0,71,0.00,,,0.00,Wunderground v.1.15,2013-10-19 11:45:00,
2013-10-19 07:50:00,47.9,38.9,30.03,SW,226,4.0,4.0,71,0.00,,,0.00,Wunderground v.1.15,2013-10-19 11:50:00,
2013-10-19 07:55:00,48.0,39.0,30.03,WSW,252,4.0,4.0,71,0.00,,,0.00,Wunderground v.1.15,2013-10-19 11:55:00,
2013-10-19 08:00:00,47.9,38.9,30.03,SW,236,4.0,4.0,71,0.00,,,0.00,Wunderground v.1.15,2013-10-19 12:00:00,
2013-10-19 08:05:00,47.9,38.9,30.03,SW,232,3.0,4.0,71,0.00,,,0.00,Wunderground v.1.15,2013-10-19 12:05:00,
2013-10-19 08:10:00,47.9,38.9,30.03,SW,223,3.0,3.0,71,0.00,,,0.00,Wunderground v.1.15,2013-10-19 12:10:00,
2013-10-19 08:15:00,48.0,39.0,30.03,SW,223,4.0,4.0,71,0.00,,,0.00,Wunderground v.1.15,2013-10-19 12:15:00,
2013-10-19 08:20:00,48.1,39.1,30.03,WSW,258,4.0,4.0,71,0.00,,,0.00,Wunderground v.1.15,2013-10-19 12:20:00,
2013-10-19 08:25:00,48.4,39.4,30.04,West,260,3.0,5.0,71,0.00,,,0.00,Wunderground v.1.15,2013-10-19 12:25:00,
2013-10-19 08:30:00,48.7,39.7,30.04,SSW,196,3.0,3.0,71,0.00,,,0.00,Wunderground v.1.15,2013-10-19 12:30:00,
2013-10-19 08:35:00,48.8,39.8,30.04,WSW,258,3.0,3.0,71,0.00,,,0.00,Wunderground v.1.15,2013-10-19 12:35:00,
2013-10-19 08:40:00,49.0,39.6,30.04,WSW,240,3.0,5.0,70,0.00,,,0.00,Wunderground v.1.15,2013-10-19 12:40:00,
2013-10-19 08:45:00,49.1,39.7,30.04,SW,215,3.0,5.0,70,0.00,,,0.00,Wunderground v.1.15,2013-10-19 12:45:00,
2013-10-19 08:50:00,49.4,40.4,30.05,SW,231,1.0,1.0,71,0.00,,,0.00,Wunderground v.1.15,2013-10-19 12:50:00,
2013-10-19 08:55:00,49.8,40.0,30.04,SW,223,1.0,2.0,69,0.00,,,0.00,Wunderground v.1.15,2013-10-19 12:55:00,
2013-10-19 09:00:00,50.0,40.2,30.04,SSW,200,2.0,2.0,69,0.00,,,0.00,Wunderground v.1.15,2013-10-19 13:00:00,
2013-10-19 09:05:00,50.3,40.5,30.04,WSW,257,1.0,2.0,69,0.00,,,0.00,Wunderground v.1.15,2013-10-19 13:05:00,
2013-10-19 09:10:00,50.5,40.3,30.04,SSW,204,2.0,2.0,68,0.00,,,0.00,Wunderground v.1.15,2013-10-19 13:10:00,
2013-10-19 09:15:00,50.7,40.5,30.04,SW,227,2.0,2.0,68,0.00,,,0.00,Wunderground v.1.15,2013-10-19 13:15:00,
2013-10-19 09:20:00,50.7,40.9,30.04,WSW,239,2.0,2.0,69,0.00,,,0.00,Wunderground v.1.15,2013-10-19 13:20:00,
2013-10-19 09:25:00,50.8,41.0,30.04,WSW,255,2.0,2.0,69,0.00,,,0.00,Wunderground v.1.15,2013-10-19 13:25:00,
2013-10-19 09:30:00,51.1,41.3,30.04,SW,218,2.0,2.0,69,0.00,,,0.00,Wunderground v.1.15,2013-10-19 13:30:00,
2013-10-19 09:35:00,51.3,41.1,30.04,South,181,2.0,2.0,68,0.00,,,0.00,Wunderground v.1.15,2013-10-19 13:35:00,
2013-10-19 09:45:00,51.9,41.3,30.04,South,187,3.0,3.0,67,0.00,,,0.00,Wunderground v.1.15,2013-10-19 13:45:00,
2013-10-19 09:55:00,52.8,41.7,30.03,SW,226,2.0,4.0,66,0.00,,,0.00,Wunderground v.1.15,2013-10-19 13:55:00,
2013-10-19 10:00:00,53.2,41.7,30.03,SW,230,2.0,3.0,65,0.00,,,0.00,Wunderground v.1.15,2013-10-19 14:00:00,
2013-10-19 10:05:00,53.3,41.8,30.04,SSW,211,2.0,3.0,65,0.00,,,0.00,Wunderground v.1.15,2013-10-19 14:05:00,
2013-10-19 10:15:00,53.7,41.8,30.04,South,190,3.0,3.0,64,0.00,,,0.00,Wunderground v.1.15,2013-10-19 14:15:00,
2013-10-19 10:20:00,53.9,42.0,30.04,WSW,244,2.0,2.0,64,0.00,,,0.00,Wunderground v.1.15,2013-10-19 14:20:00,
2013-10-19 10:25:00,54.1,42.2,30.04,WSW,244,2.0,5.0,64,0.00,,,0.00,Wunderground v.1.15,2013-10-19 14:25:00,
2013-10-19 10:30:00,54.1,42.6,30.03,South,190,2.0,2.0,65,0.00,,,0.00,Wunderground v.1.15,2013-10-19 14:30:00,
2013-10-19 10:35:00,54.3,42.4,30.04,WSW,257,2.0,2.0,64,0.00,,,0.00,Wunderground v.1.15,2013-10-19 14:35:00,
2013-10-19 10:40:00,54.5,42.6,30.03,SW,234,2.0,2.0,64,0.00,,,0.00,Wunderground v.1.15,2013-10-19 14:40:00,
2013-10-19 10:45:00,54.8,42.9,30.03,SSE,166,2.0,5.0,64,0.00,,,0.00,Wunderground v.1.15,2013-10-19 14:45:00,
2013-10-19 10:50:00,55.0,43.4,30.03,WSW,240,2.0,2.0,65,0.00,,,0.00,Wunderground v.1.15,2013-10-19 14:50:00,
2013-10-19 10:55:00,55.4,42.6,30.03,South,185,2.0,6.0,62,0.00,,,0.00,Wunderground v.1.15,2013-10-19 14:55:00,
2013-10-19 11:00:00,55.6,42.8,30.03,SSW,201,3.0,3.0,62,0.00,,,0.00,Wunderground v.1.15,2013-10-19 15:00:00,
2013-10-19 11:05:00,56.0,43.2,30.03,SW,230,3.0,3.0,62,0.00,,,0.00,Wunderground v.1.15,2013-10-19 15:05:00,
2013-10-19 11:10:00,56.3,42.6,30.03,SSW,208,2.0,4.0,60,0.00,,,0.00,Wunderground v.1.15,2013-10-19 15:10:00,
2013-10-19 11:15:00,56.3,42.6,30.03,WSW,240,2.0,4.0,60,0.00,,,0.00,Wunderground v.1.15,2013-10-19 15:15:00,
2013-10-19 11:20:00,56.5,43.2,30.03,WSW,250,2.0,2.0,61,0.00,,,0.00,Wunderground v.1.15,2013-10-19 15:20:00,
2013-10-19 11:25:00,56.7,43.4,30.02,SW,228,2.0,3.0,61,0.00,,,0.00,Wunderground v.1.15,2013-10-19 15:25:00,
2013-10-19 11:30:00,56.9,43.2,30.02,West,270,3.0,3.0,60,0.00,,,0.00,Wunderground v.1.15,2013-10-19 15:30:00,
2013-10-19 11:35:00,56.9,42.3,30.02,WSW,252,3.0,4.0,58,0.00,,,0.00,Wunderground v.1.15,2013-10-19 15:35:00,
2013-10-19 11:40:00,56.8,43.1,30.02,SW,229,3.0,3.0,60,0.00,,,0.00,Wunderground v.1.15,2013-10-19 15:40:00,
2013-10-19 11:45:00,57.1,42.9,30.02,WSW,240,3.0,3.0,59,0.00,,,0.00,Wunderground v.1.15,2013-10-19 15:45:00,
2013-10-19 11:50:00,57.3,43.5,30.02,South,181,3.0,3.0,60,0.00,,,0.00,Wunderground v.1.15,2013-10-19 15:50:00,
2013-10-19 11:55:00,57.5,43.3,30.02,WSW,244,3.0,3.0,59,0.00,,,0.00,Wunderground v.1.15,2013-10-19 15:55:00,
2013-10-19 12:00:00,57.7,43.0,30.02,WSW,253,3.0,3.0,58,0.00,,,0.00,Wunderground v.1.15,2013-10-19 16:00:00,
2013-10-19 12:05:00,58.0,43.3,30.02,SSW,209,2.0,3.0,58,0.00,,,0.00,Wunderground v.1.15,2013-10-19 16:05:00,
2013-10-19 12:10:00,58.3,43.6,30.02,West,275,2.0,2.0,58,0.00,,,0.00,Wunderground v.1.15,2013-10-19 16:10:00,
2013-10-19 12:15:00,58.6,43.9,30.01,SW,233,2.0,3.0,58,0.00,,,0.00,Wunderground v.1.15,2013-10-19 16:15:00,
2013-10-19 12:20:00,58.6,43.9,30.02,SW,228,3.0,3.0,58,0.00,,,0.00,Wunderground v.1.15,2013-10-19 16:20:00,
2013-10-19 12:25:00,58.7,43.5,30.02,West,280,3.0,3.0,57,0.00,,,0.00,Wunderground v.1.15,2013-10-19 16:25:00,
2013-10-19 12:30:00,58.8,44.5,30.02,WSW,248,3.0,3.0,59,0.00,,,0.00,Wunderground v.1.15,2013-10-19 16:30:00,
2013-10-19 12:40:00,59.3,43.1,30.01,WSW,250,2.0,2.0,55,0.00,,,0.00,Wunderground v.1.15,2013-10-19 16:40:00,
2013-10-19 12:45:00,59.1,42.9,30.00,SW,221,2.0,2.0,55,0.00,,,0.00,Wunderground v.1.15,2013-10-19 16:45:00,
2013-10-19 12:50:00,59.3,44.1,30.00,WNW,298,1.0,1.0,57,0.00,,,0.00,Wunderground v.1.15,2013-10-19 16:50:00,
2013-10-19 12:55:00,59.6,42.4,30.00,WSW,246,2.0,4.0,53,0.00,,,0.00,Wunderground v.1.15,2013-10-19 16:55:00,
2013-10-19 13:00:00,59.9,42.7,30.00,South,178,3.0,6.0,53,0.00,,,0.00,Wunderground v.1.15,2013-10-19 17:00:00,
2013-10-19 13:05:00,60.0,44.3,30.00,WSW,239,4.0,6.0,56,0.00,,,0.00,Wunderground v.1.15,2013-10-19 17:05:00,
2013-10-19 13:10:00,60.0,44.7,30.00,WSW,243,4.0,4.0,57,0.00,,,0.00,Wunderground v.1.15,2013-10-19 17:10:00,
2013-10-19 13:15:00,60.0,43.8,29.99,SW,232,3.0,4.0,55,0.00,,,0.00,Wunderground v.1.15,2013-10-19 17:15:00,
2013-10-19 13:20:00,60.2,43.0,29.99,WSW,245,2.0,2.0,53,0.00,,,0.00,Wunderground v.1.15,2013-10-19 17:20:00,
2013-10-19 13:25:00,60.3,43.6,29.99,SW,233,2.0,2.0,54,0.00,,,0.00,Wunderground v.1.15,2013-10-19 17:25:00,
2013-10-19 13:30:00,60.5,42.8,29.99,WSW,254,2.0,2.0,52,0.00,,,0.00,Wunderground v.1.15,2013-10-19 17:30:00,
2013-10-19 13:35:00,60.4,42.7,29.99,West,279,3.0,3.0,52,0.00,,,0.00,Wunderground v.1.15,2013-10-19 17:35:00,
2013-10-19 13:40:00,60.4,42.7,29.99,SW,236,4.0,4.0,52,0.00,,,0.00,Wunderground v.1.15,2013-10-19 17:40:00,
2013-10-19 13:45:00,60.6,43.9,29.99,SW,217,4.0,4.0,54,0.00,,,0.00,Wunderground v.1.15,2013-10-19 17:45:00,
2013-10-19 13:50:00,60.9,44.1,29.99,SW,214,2.0,2.0,54,0.00,,,0.00,Wunderground v.1.15,2013-10-19 17:50:00,
2013-10-19 14:00:00,61.0,43.7,29.98,SSW,211,2.0,6.0,53,0.00,,,0.00,Wunderground v.1.15,2013-10-19 18:00:00,
2013-10-19 14:05:00,60.7,43.0,29.98,WSW,254,3.0,6.0,52,0.00,,,0.00,Wunderground v.1.15,2013-10-19 18:05:00,
2013-10-19 14:10:00,60.6,43.4,29.98,SSW,206,3.0,5.0,53,0.00,,,0.00,Wunderground v.1.15,2013-10-19 18:10:00,
2013-10-19 14:15:00,60.6,42.9,29.98,SW,228,4.0,5.0,52,0.00,,,0.00,Wunderground v.1.15,2013-10-19 18:15:00,
2013-10-19 14:20:00,60.7,43.5,29.97,SSW,207,2.0,2.0,53,0.00,,,0.00,Wunderground v.1.15,2013-10-19 18:20:00,
2013-10-19 14:25:00,60.7,43.5,29.97,SSW,209,2.0,2.0,53,0.00,,,0.00,Wunderground v.1.15,2013-10-19 18:25:00,
2013-10-19 14:30:00,60.7,43.0,29.97,SW,215,3.0,3.0,52,0.00,,,0.00,Wunderground v.1.15,2013-10-19 18:30:00,
2013-10-19 14:35:00,60.7,43.9,29.97,WSW,241,2.0,3.0,54,0.00,,,0.00,Wunderground v.1.15,2013-10-19 18:35:00,
2013-10-19 14:40:00,60.7,43.9,29.98,ENE,61,2.0,2.0,54,0.00,,,0.00,Wunderground v.1.15,2013-10-19 18:40:00,
2013-10-19 14:45:00,60.4,44.2,29.98,SSW,200,2.0,2.0,55,0.00,,,0.00,Wunderground v.1.15,2013-10-19 18:45:00,
2013-10-19 14:50:00,60.2,44.0,29.98,SW,217,2.0,2.0,55,0.00,,,0.00,Wunderground v.1.15,2013-10-19 18:50:00,
2013-10-19 14:55:00,59.9,44.2,29.98,SSE,148,2.0,2.0,56,0.00,,,0.00,Wunderground v.1.15,2013-10-19 18:55:00,
2013-10-19 15:00:00,59.7,44.0,29.98,SW,218,2.0,2.0,56,0.00,,,0.00,Wunderground v.1.15,2013-10-19 19:00:00,
2013-10-19 15:05:00,59.6,43.4,29.98,SSW,198,1.0,3.0,55,0.00,,,0.00,Wunderground v.1.15,2013-10-19 19:05:00,
2013-10-19 15:10:00,59.6,43.4,29.98,West,279,2.0,2.0,55,0.00,,,0.00,Wunderground v.1.15,2013-10-19 19:10:00,
2013-10-19 15:15:00,59.6,43.4,29.98,SSW,207,1.0,2.0,55,0.00,,,0.00,Wunderground v.1.15,2013-10-19 19:15:00,
2013-10-19 15:20:00,59.6,43.4,29.98,WSW,238,1.0,1.0,55,0.00,,,0.00,Wunderground v.1.15,2013-10-19 19:20:00,
2013-10-19 15:25:00,59.4,43.7,29.98,SSW,213,2.0,2.0,56,0.00,,,0.00,Wunderground v.1.15,2013-10-19 19:25:00,
2013-10-19 15:30:00,59.2,43.5,29.98,SSW,207,2.0,2.0,56,0.00,,,0.00,Wunderground v.1.15,2013-10-19 19:30:00,
2013-10-19 15:35:00,59.2,44.0,29.98,SW,225,2.0,2.0,57,0.00,,,0.00,Wunderground v.1.15,2013-10-19 19:35:00,
2013-10-19 15:40:00,59.1,43.9,29.98,SW,216,2.0,2.0,57,0.00,,,0.00,Wunderground v.1.15,2013-10-19 19:40:00,
2013-10-19 15:45:00,59.1,43.9,29.98,SW,225,2.0,2.0,57,0.00,,,0.00,Wunderground v.1.15,2013-10-19 19:45:00,
2013-10-19 15:55:00,58.9,44.1,29.96,East,80,1.0,1.0,58,0.00,,,0.00,Wunderground v.1.15,2013-10-19 19:55:00,
2013-10-19 16:00:00,58.9,44.1,29.95,West,277,1.0,1.0,58,0.00,,,0.00,Wunderground v.1.15,2013-10-19 20:00:00,
2013-10-19 16:05:00,58.8,44.0,29.95,SW,229,1.0,1.0,58,0.00,,,0.00,Wunderground v.1.15,2013-10-19 20:05:00,
2013-10-19 16:10:00,58.8,44.0,29.95,South,175,0.0,1.0,58,0.00,,,0.00,Wunderground v.1.15,2013-10-19 20:10:00,
2013-10-19 16:15:00,58.7,44.0,29.95,South,173,0.0,1.0,58,0.00,,,0.00,Wunderground v.1.15,2013-10-19 20:15:00,
2013-10-19 16:20:00,58.6,44.8,29.94,SSE,163,0.0,1.0,60,0.00,,,0.00,Wunderground v.1.15,2013-10-19 20:20:00,
2013-10-19 16:25:00,58.4,45.0,29.94,SSE,147,0.0,1.0,61,0.00,,,0.00,Wunderground v.1.15,2013-10-19 20:25:00,
2013-10-19 16:30:00,58.1,44.3,29.94,South,186,0.0,0.0,60,0.00,,,0.00,Wunderground v.1.15,2013-10-19 20:30:00,
2013-10-19 16:35:00,57.9,44.5,29.94,South,169,0.0,1.0,61,0.00,,,0.00,Wunderground v.1.15,2013-10-19 20:35:00,
2013-10-19 16:40:00,57.7,45.2,29.95,ESE,121,0.0,0.0,63,0.00,,,0.00,Wunderground v.1.15,2013-10-19 20:40:00,
2013-10-19 16:45:00,57.6,45.5,29.94,SSE,166,0.0,0.0,64,0.00,,,0.00,Wunderground v.1.15,2013-10-19 20:45:00,
2013-10-19 16:55:00,57.5,44.6,29.95,SE,139,0.0,1.0,62,0.00,,,0.00,Wunderground v.1.15,2013-10-19 20:55:00,
2013-10-19 17:00:00,57.6,44.7,29.94,SSE,156,1.0,2.0,62,0.00,,,0.00,Wunderground v.1.15,2013-10-19 21:00:00,
2013-10-19 17:10:00,57.8,44.4,29.95,West,261,1.0,1.0,61,0.00,,,0.00,Wunderground v.1.15,2013-10-19 21:10:00,
2013-10-19 17:15:00,57.8,44.4,29.95,SSW,193,1.0,1.0,61,0.00,,,0.00,Wunderground v.1.15,2013-10-19 21:15:00,
2013-10-19 17:20:00,57.8,44.4,29.95,SW,225,2.0,2.0,61,0.00,,,0.00,Wunderground v.1.15,2013-10-19 21:20:00,
2013-10-19 17:25:00,57.7,43.9,29.94,SSW,201,1.0,2.0,60,0.00,,,0.00,Wunderground v.1.15,2013-10-19 21:25:00,
2013-10-19 17:30:00,57.6,44.2,29.94,SSE,148,1.0,2.0,61,0.00,,,0.00,Wunderground v.1.15,2013-10-19 21:30:00,
2013-10-19 17:35:00,57.6,44.2,29.93,SSE,156,1.0,2.0,61,0.00,,,0.00,Wunderground v.1.15,2013-10-19 21:35:00,
2013-10-19 17:40:00,57.4,44.5,29.93,SSE,165,1.0,5.0,62,0.00,,,0.00,Wunderground v.1.15,2013-10-19 21:40:00,
2013-10-19 17:45:00,57.3,44.4,29.94,SE,137,1.0,5.0,62,0.00,,,0.00,Wunderground v.1.15,2013-10-19 21:45:00,
2013-10-19 17:55:00,57.1,45.0,29.94,SE,133,1.0,3.0,64,0.00,,,0.00,Wunderground v.1.15,2013-10-19 21:55:00,
2013-10-19 18:00:00,56.8,44.7,29.94,SSE,161,1.0,1.0,64,0.00,,,0.00,Wunderground v.1.15,2013-10-19 22:00:00,
2013-10-19 18:05:00,56.5,44.9,29.94,ESE,123,1.0,1.0,65,0.00,,,0.00,Wunderground v.1.15,2013-10-19 22:05:00,
2013-10-19 18:15:00,56.0,44.4,29.94,ESE,121,1.0,1.0,65,0.00,,,0.00,Wunderground v.1.15,2013-10-19 22:15:00,
2013-10-19 18:20:00,56.1,44.5,29.93,ESE,123,1.0,6.0,65,0.00,,,0.00,Wunderground v.1.15,2013-10-19 22:20:00,
2013-10-19 18:25:00,56.2,44.6,29.92,East,82,1.0,6.0,65,0.00,,,0.00,Wunderground v.1.15,2013-10-19 22:25:00,
2013-10-19 18:30:00,56.2,44.6,29.92,SE,146,1.0,1.0,65,0.00,,,0.00,Wunderground v.1.15,2013-10-19 22:30:00,
2013-10-19 18:35:00,56.3,44.3,29.92,SSE,167,1.0,3.0,64,0.00,,,0.00,Wunderground v.1.15,2013-10-19 22:35:00,
2013-10-19 18:45:00,56.4,44.4,29.92,SSW,194,1.0,4.0,64,0.00,,,0.00,Wunderground v.1.15,2013-10-19 22:45:00,
2013-10-19 18:50:00,56.5,44.5,29.93,East,97,2.0,2.0,64,0.00,,,0.00,Wunderground v.1.15,2013-10-19 22:50:00,
2013-10-19 18:55:00,56.4,44.4,29.93,SE,136,2.0,2.0,64,0.00,,,0.00,Wunderground v.1.15,2013-10-19 22:55:00,
2013-10-19 19:00:00,56.2,44.6,29.93,SSE,148,2.0,2.0,65,0.00,,,0.00,Wunderground v.1.15,2013-10-19 23:00:00,
2013-10-19 19:10:00,56.0,44.8,29.92,ESE,105,3.0,3.0,66,0.00,,,0.00,Wunderground v.1.15,2013-10-19 23:10:00,
2013-10-19 19:15:00,55.9,44.7,29.92,SE,132,3.0,3.0,66,0.00,,,0.00,Wunderground v.1.15,2013-10-19 23:15:00,
2013-10-19 19:20:00,55.8,45.0,29.92,SSE,160,3.0,3.0,67,0.00,,,0.00,Wunderground v.1.15,2013-10-19 23:20:00,
2013-10-19 19:30:00,55.7,44.9,29.91,East,80,3.0,5.0,67,0.00,,,0.00,Wunderground v.1.15,2013-10-19 23:30:00,
2013-10-19 19:35:00,55.7,44.9,29.91,SE,140,4.0,5.0,67,0.00,,,0.00,Wunderground v.1.15,2013-10-19 23:35:00,
2013-10-19 19:40:00,55.7,44.9,29.91,SSE,151,4.0,6.0,67,0.00,,,0.00,Wunderground v.1.15,2013-10-19 23:40:00,
2013-10-19 19:45:00,55.6,44.8,29.91,SSE,159,3.0,6.0,67,0.00,,,0.00,Wunderground v.1.15,2013-10-19 23:45:00,
2013-10-19 19:50:00,55.6,45.2,29.91,South,172,3.0,4.0,68,0.00,,,0.00,Wunderground v.1.15,2013-10-19 23:50:00,
2013-10-19 19:55:00,55.6,44.8,29.91,SSE,165,4.0,4.0,67,0.00,,,0.00,Wunderground v.1.15,2013-10-19 23:55:00,
2013-10-19 20:00:00,55.5,45.1,29.91,SSE,165,4.0,5.0,68,0.00,,,0.00,Wunderground v.1.15,2013-10-20 00:00:00,
2013-10-19 20:05:00,55.4,45.0,29.91,SE,138,3.0,5.0,68,0.00,,,0.00,Wunderground v.1.15,2013-10-20 00:05:00,
2013-10-19 20:10:00,55.3,45.3,29.90,SE,130,3.0,3.0,69,0.00,,,0.00,Wunderground v.1.15,2013-10-20 00:10:00,
2013-10-19 20:15:00,55.2,45.2,29.90,SE,138,3.0,3.0,69,0.00,,,0.00,Wunderground v.1.15,2013-10-20 00:15:00,
2013-10-19 20:20:00,55.1,45.1,29.90,SE,126,3.0,8.0,69,0.00,,,0.00,Wunderground v.1.15,2013-10-20 00:20:00,
2013-10-19 20:25:00,55.0,45.0,29.90,SSW,192,3.0,8.0,69,0.00,,,0.00,Wunderground v.1.15,2013-10-20 00:25:00,
2013-10-19 20:30:00,54.9,44.9,29.91,South,176,2.0,2.0,69,0.00,,,0.00,Wunderground v.1.15,2013-10-20 00:30:00,
2013-10-19 20:35:00,54.8,44.8,29.91,SE,140,1.0,2.0,69,0.00,,,0.00,Wunderground v.1.15,2013-10-20 00:35:00,
2013-10-19 20:45:00,54.9,44.1,29.89,SSE,157,1.0,4.0,67,0.00,,,0.00,Wunderground v.1.15,2013-10-20 00:45:00,
2013-10-19 20:50:00,55.0,43.8,29.88,SE,135,2.0,3.0,66,0.00,,,0.00,Wunderground v.1.15,2013-10-20 00:50:00,
2013-10-19 20:55:00,55.1,43.9,29.88,East,90,2.0,3.0,66,0.00,,,0.00,Wunderground v.1.15,2013-10-20 00:55:00,
2013-10-19 21:00:00,55.1,44.3,29.88,SW,219,1.0,1.0,67,0.00,,,0.00,Wunderground v.1.15,2013-10-20 01:00:00,
2013-10-19 21:05:00,54.9,43.7,29.88,SSE,148,1.0,3.0,66,0.00,,,0.00,Wunderground v.1.15,2013-10-20 01:05:00,
2013-10-19 21:15:00,54.9,43.4,29.88,SSW,199,1.0,3.0,65,0.00,,,0.00,Wunderground v.1.15,2013-10-20 01:15:00,
2013-10-19 21:20:00,54.9,43.7,29.88,SSW,199,2.0,2.0,66,0.00,,,0.00,Wunderground v.1.15,2013-10-20 01:20:00,
2013-10-19 21:25:00,54.8,43.7,29.88,SW,217,2.0,2.0,66,0.00,,,0.00,Wunderground v.1.15,2013-10-20 01:25:00,
2013-10-19 21:30:00,54.8,43.7,29.88,South,178,2.0,2.0,66,0.00,,,0.00,Wunderground v.1.15,2013-10-20 01:30:00,
2013-10-19 21:35:00,54.7,43.6,29.89,SSW,209,1.0,2.0,66,0.00,,,0.00,Wunderground v.1.15,2013-10-20 01:35:00,
2013-10-19 21:40:00,54.5,43.8,29.89,SW,227,0.0,0.0,67,0.00,,,0.00,Wunderground v.1.15,2013-10-20 01:40:00,
2013-10-19 21:45:00,54.3,44.0,29.89,SSW,209,1.0,1.0,68,0.00,,,0.00,Wunderground v.1.15,2013-10-20 01:45:00,
2013-10-19 21:50:00,54.1,43.8,29.89,SW,223,1.0,2.0,68,0.00,,,0.00,Wunderground v.1.15,2013-10-20 01:50:00,
2013-10-19 21:55:00,54.0,44.1,29.89,SW,217,1.0,2.0,69,0.00,,,0.00,Wunderground v.1.15,2013-10-20 01:55:00,
2013-10-19 22:00:00,53.9,44.0,29.88,SSW,205,1.0,1.0,69,0.00,,,0.00,Wunderground v.1.15,2013-10-20 02:00:00,
2013-10-19 22:10:00,53.8,43.9,29.87,SSE,168,0.0,0.0,69,0.00,,,0.00,Wunderground v.1.15,2013-10-20 02:10:00,
2013-10-19 22:15:00,53.6,44.0,29.87,SW,217,0.0,4.0,70,0.00,,,0.00,Wunderground v.1.15,2013-10-20 02:15:00,
2013-10-19 22:20:00,53.4,43.9,29.87,SSW,201,1.0,1.0,70,0.00,,,0.00,Wunderground v.1.15,2013-10-20 02:20:00,
2013-10-19 22:30:00,53.1,43.6,29.87,SSE,167,0.0,0.0,70,0.00,,,0.00,Wunderground v.1.15,2013-10-20 02:30:00,
2013-10-19 22:35:00,53.0,43.8,29.87,WSW,253,0.0,2.0,71,0.00,,,0.00,Wunderground v.1.15,2013-10-20 02:35:00,
2013-10-19 22:40:00,53.0,43.5,29.87,SSE,147,1.0,1.0,70,0.00,,,0.00,Wunderground v.1.15,2013-10-20 02:40:00,
2013-10-19 22:45:00,53.1,43.6,29.86,WSW,238,2.0,2.0,70,0.00,,,0.00,Wunderground v.1.15,2013-10-20 02:45:00,
2013-10-19 22:50:00,53.2,42.9,29.87,SSW,209,2.0,6.0,68,0.00,,,0.00,Wunderground v.1.15,2013-10-20 02:50:00,
2013-10-19 22:55:00,53.3,43.0,29.87,SSW,200,1.0,6.0,68,0.00,,,0.00,Wunderground v.1.15,2013-10-20 02:55:00,
2013-10-19 23:00:00,53.4,43.1,29.87,WSW,247,1.0,2.0,68,0.00,,,0.00,Wunderground v.1.15,2013-10-20 03:00:00,
2013-10-19 23:05:00,53.4,43.1,29.87,SSE,164,1.0,3.0,68,0.00,,,0.00,Wunderground v.1.15,2013-10-20 03:05:00,
2013-10-19 23:10:00,53.5,43.2,29.86,SSW,201,2.0,3.0,68,0.00,,,0.00,Wunderground v.1.15,2013-10-20 03:10:00,
2013-10-19 23:15:00,53.4,43.1,29.86,SSW,211,2.0,3.0,68,0.00,,,0.00,Wunderground v.1.15,2013-10-20 03:15:00,
2013-10-19 23:20:00,53.4,43.1,29.86,SSE,151,2.0,2.0,68,0.00,,,0.00,Wunderground v.1.15,2013-10-20 03:20:00,
2013-10-19 23:25:00,53.3,43.0,29.85,SSW,192,3.0,4.0,68,0.00,,,0.00,Wunderground v.1.15,2013-10-20 03:25:00,
2013-10-19 23:30:00,53.2,42.9,29.85,ENE,64,4.0,4.0,68,0.00,,,0.00,Wunderground v.1.15,2013-10-20 03:30:00,
2013-10-19 23:35:00,53.3,43.0,29.85,SW,232,3.0,4.0,68,0.00,,,0.00,Wunderground v.1.15,2013-10-20 03:35:00,
2013-10-19 23:45:00,53.3,43.0,29.85,SW,223,2.0,3.0,68,0.00,,,0.00,Wunderground v.1.15,2013-10-20 03:45:00,
2013-10-19 23:50:00,53.3,43.0,29.85,SW,222,2.0,3.0,68,0.00,,,0.00,Wunderground v.1.15,2013-10-20 03:50:00,
2013-10-19 23:55:00,53.2,43.3,29.85,South,173,2.0,3.0,69,0.00,,,0.00,Wunderground v.1.15,2013-10-20 03:55:00,